Time,TemperatureF,DewpointF,PressureIn,WindDirection,WindDirectionDegrees,WindSpeedMPH,WindSpeedGustMPH,Humidity,HourlyPrecipIn,Conditions,Clouds,dailyrainin,SoftwareType,DateUTC
2013-01-31 00:03:00,37.8,25.9,30.00,WSW,248,6.9,12.3,62,0.00,,,0.00,WUHU216HW,2013-01-31 07:03:00,
2013-01-31 00:08:00,37.6,25.4,30.00,SW,225,6.7,10.5,61,0.00,,,0.00,WUHU216HW,2013-01-31 07:08:00,
2013-01-31 00:13:00,37.6,25.7,30.00,WSW,248,6.9,8.5,62,0.00,,,0.00,WUHU216HW,2013-01-31 07:13:00,
2013-01-31 00:18:00,37.8,25.9,30.00,WSW,248,9.6,9.6,62,0.00,,,0.00,WUHU216HW,2013-01-31 07:18:00,
2013-01-31 00:23:00,38.0,25.8,30.00,WSW,248,6.7,9.6,61,0.00,,,0.00,WUHU216HW,2013-01-31 07:23:00,
2013-01-31 00:28:00,38.2,25.8,30.00,West,270,5.6,8.5,61,0.00,,,0.00,WUHU216HW,2013-01-31 07:28:00,
2013-01-31 00:33:00,38.2,25.8,30.00,WSW,248,8.5,8.5,61,0.00,,,0.00,WUHU216HW,2013-01-31 07:33:00,
2013-01-31 00:38:00,38.2,25.8,30.00,WSW,248,7.4,8.5,61,0.00,,,0.00,WUHU216HW,2013-01-31 07:38:00,
2013-01-31 00:43:00,38.3,25.7,30.01,WSW,248,7.6,12.3,60,0.00,,,0.00,WUHU216HW,2013-01-31 07:43:00,
2013-01-31 00:48:00,38.5,25.8,30.01,West,270,8.5,12.3,60,0.00,,,0.00,WUHU216HW,2013-01-31 07:48:00,
2013-01-31 00:53:00,38.5,25.8,30.01,WSW,248,6.7,11.2,60,0.00,,,0.00,WUHU216HW,2013-01-31 07:53:00,
2013-01-31 00:58:00,38.5,25.8,30.01,WSW,248,9.2,12.8,60,0.00,,,0.00,WUHU216HW,2013-01-31 07:58:00,
2013-01-31 01:03:00,38.7,25.6,30.01,WSW,248,10.5,12.8,59,0.00,,,0.00,WUHU216HW,2013-01-31 08:03:00,
2013-01-31 01:08:00,38.5,25.4,30.01,WSW,248,9.8,12.1,59,0.00,,,0.00,WUHU216HW,2013-01-31 08:08:00,
2013-01-31 01:13:00,38.5,25.4,30.01,WSW,248,11.0,14.1,59,0.00,,,0.00,WUHU216HW,2013-01-31 08:13:00,
2013-01-31 01:18:00,38.5,25.8,30.01,SW,225,7.6,14.1,60,0.00,,,0.00,WUHU216HW,2013-01-31 08:18:00,
2013-01-31 01:23:00,38.3,26.0,30.01,WSW,248,9.2,10.7,61,0.00,,,0.00,WUHU216HW,2013-01-31 08:23:00,
2013-01-31 01:28:00,38.3,26.4,30.01,SW,225,9.8,12.5,62,0.00,,,0.00,WUHU216HW,2013-01-31 08:28:00,
2013-01-31 01:33:00,38.2,26.3,30.01,WSW,248,7.4,13.4,62,0.00,,,0.00,WUHU216HW,2013-01-31 08:33:00,
2013-01-31 01:38:00,38.3,26.0,30.01,SW,225,7.4,13.4,61,0.00,,,0.00,WUHU216HW,2013-01-31 08:38:00,
2013-01-31 01:43:00,38.3,26.4,30.01,WSW,248,6.7,11.6,62,0.00,,,0.00,WUHU216HW,2013-01-31 08:43:00,
2013-01-31 01:48:00,38.3,26.8,30.01,SW,225,9.2,12.1,63,0.00,,,0.00,WUHU216HW,2013-01-31 08:48:00,
2013-01-31 01:53:00,37.8,26.3,30.01,WSW,248,8.9,12.1,63,0.00,,,0.00,WUHU216HW,2013-01-31 08:53:00,
2013-01-31 01:58:00,37.8,26.3,30.01,SW,225,5.6,8.9,63,0.00,,,0.00,WUHU216HW,2013-01-31 08:58:00,
2013-01-31 02:04:00,37.8,26.6,30.01,WSW,248,8.3,10.7,64,0.00,,,0.00,WUHU216HW,2013-01-31 09:04:00,
2013-01-31 02:09:00,37.8,26.3,30.01,SW,225,9.2,11.9,63,0.00,,,0.00,WUHU216HW,2013-01-31 09:09:00,
2013-01-31 02:15:00,38.0,26.5,30.01,WSW,248,12.1,12.1,63,0.00,,,0.00,WUHU216HW,2013-01-31 09:15:00,
2013-01-31 02:20:00,38.3,26.8,30.01,WSW,248,6.9,14.5,63,0.00,,,0.00,WUHU216HW,2013-01-31 09:20:00,
2013-01-31 02:25:00,38.2,26.7,30.02,WSW,248,11.4,14.5,63,0.00,,,0.00,WUHU216HW,2013-01-31 09:25:00,
2013-01-31 02:30:00,38.0,26.5,30.02,SW,225,12.5,14.3,63,0.00,,,0.00,WUHU216HW,2013-01-31 09:30:00,
2013-01-31 02:35:00,38.0,26.5,30.02,WSW,248,11.6,14.3,63,0.00,,,0.00,WUHU216HW,2013-01-31 09:35:00,
2013-01-31 02:40:00,38.0,26.8,30.03,WSW,248,10.5,13.9,64,0.00,,,0.00,WUHU216HW,2013-01-31 09:40:00,
2013-01-31 02:45:00,38.0,26.8,30.03,WSW,248,10.7,12.8,64,0.00,,,0.00,WUHU216HW,2013-01-31 09:45:00,
2013-01-31 02:50:00,38.0,26.8,30.03,WSW,248,12.8,12.8,64,0.00,,,0.00,WUHU216HW,2013-01-31 09:50:00,
2013-01-31 02:55:00,38.0,27.2,30.03,West,270,8.1,13.2,65,0.00,,,0.00,WUHU216HW,2013-01-31 09:55:00,
2013-01-31 03:00:00,37.8,27.1,30.03,West,270,6.9,13.2,65,0.00,,,0.00,WUHU216HW,2013-01-31 10:00:00,
2013-01-31 03:05:00,37.6,26.9,30.03,WSW,248,6.7,7.8,65,0.00,,,0.00,WUHU216HW,2013-01-31 10:05:00,
2013-01-31 03:10:00,37.4,27.1,30.03,West,270,5.6,8.3,66,0.00,,,0.00,WUHU216HW,2013-01-31 10:10:00,
2013-01-31 03:15:00,37.4,26.7,30.03,WSW,248,3.1,8.3,65,0.00,,,0.00,WUHU216HW,2013-01-31 10:15:00,
2013-01-31 03:20:00,37.4,26.7,30.03,WSW,248,4.9,6.9,65,0.00,,,0.00,WUHU216HW,2013-01-31 10:20:00,
2013-01-31 03:25:00,37.6,26.9,30.03,SW,225,9.2,9.8,65,0.00,,,0.00,WUHU216HW,2013-01-31 10:25:00,
2013-01-31 03:30:00,38.0,26.8,30.03,WSW,248,9.8,9.8,64,0.00,,,0.00,WUHU216HW,2013-01-31 10:30:00,
2013-01-31 03:35:00,38.2,26.7,30.03,West,270,9.4,9.8,63,0.00,,,0.00,WUHU216HW,2013-01-31 10:35:00,
2013-01-31 03:40:00,38.5,26.9,30.03,WSW,248,6.9,10.3,63,0.00,,,0.00,WUHU216HW,2013-01-31 10:40:00,
2013-01-31 03:45:00,38.2,26.7,30.03,WSW,248,8.1,10.3,63,0.00,,,0.00,WUHU216HW,2013-01-31 10:45:00,
2013-01-31 03:50:00,38.3,26.8,30.03,WSW,248,11.4,12.3,63,0.00,,,0.00,WUHU216HW,2013-01-31 10:50:00,
2013-01-31 03:55:00,38.5,26.6,30.04,WSW,248,6.9,12.3,62,0.00,,,0.00,WUHU216HW,2013-01-31 10:55:00,
2013-01-31 04:01:00,38.5,26.6,30.04,WSW,248,4.5,12.1,62,0.00,,,0.00,WUHU216HW,2013-01-31 11:01:00,
2013-01-31 04:06:00,38.3,26.8,30.04,SW,225,4.5,8.3,63,0.00,,,0.00,WUHU216HW,2013-01-31 11:06:00,
2013-01-31 04:10:00,38.2,26.7,30.04,WSW,248,8.5,8.5,63,0.00,,,0.00,WUHU216HW,2013-01-31 11:10:00,
2013-01-31 04:16:00,38.0,26.1,30.04,WSW,248,4.7,8.5,62,0.00,,,0.00,WUHU216HW,2013-01-31 11:16:00,
2013-01-31 04:21:00,38.0,26.5,30.04,WSW,248,6.5,7.2,63,0.00,,,0.00,WUHU216HW,2013-01-31 11:21:00,
2013-01-31 04:26:00,38.5,26.2,30.04,West,270,8.3,8.7,61,0.00,,,0.00,WUHU216HW,2013-01-31 11:26:00,
2013-01-31 04:31:00,38.5,25.8,30.04,West,270,6.3,8.7,60,0.00,,,0.00,WUHU216HW,2013-01-31 11:31:00,
2013-01-31 04:36:00,38.7,26.4,30.04,WSW,248,10.1,10.1,61,0.00,,,0.00,WUHU216HW,2013-01-31 11:36:00,
2013-01-31 04:41:00,38.7,26.0,30.04,West,270,6.3,10.1,60,0.00,,,0.00,WUHU216HW,2013-01-31 11:41:00,
2013-01-31 04:46:00,38.5,25.4,30.04,West,270,6.9,9.8,59,0.00,,,0.00,WUHU216HW,2013-01-31 11:46:00,
2013-01-31 04:51:00,39.1,25.8,30.04,West,270,9.2,12.1,59,0.00,,,0.00,WUHU216HW,2013-01-31 11:51:00,
2013-01-31 04:56:00,39.2,26.0,30.04,WSW,248,6.9,12.1,59,0.00,,,0.00,WUHU216HW,2013-01-31 11:56:00,
2013-01-31 05:01:00,39.1,26.3,30.04,WSW,248,6.9,8.9,60,0.00,,,0.00,WUHU216HW,2013-01-31 12:01:00,
2013-01-31 05:06:00,38.5,26.2,30.05,WSW,248,7.8,7.8,61,0.00,,,0.00,WUHU216HW,2013-01-31 12:06:00,
2013-01-31 05:11:00,38.9,26.1,30.04,WSW,248,7.2,11.4,60,0.00,,,0.00,WUHU216HW,2013-01-31 12:11:00,
2013-01-31 05:16:00,38.9,25.8,30.04,West,270,11.9,15.9,59,0.00,,,0.00,WUHU216HW,2013-01-31 12:16:00,
2013-01-31 05:21:00,39.2,25.6,30.04,WSW,248,9.4,15.9,58,0.00,,,0.00,WUHU216HW,2013-01-31 12:21:00,
2013-01-31 05:26:00,39.4,25.4,30.05,West,270,14.1,14.1,57,0.00,,,0.00,WUHU216HW,2013-01-31 12:26:00,
2013-01-31 05:31:00,39.6,25.9,30.04,West,270,13.0,14.3,58,0.00,,,0.00,WUHU216HW,2013-01-31 12:31:00,
2013-01-31 05:36:00,39.8,25.3,30.05,West,270,13.4,15.0,56,0.00,,,0.00,WUHU216HW,2013-01-31 12:36:00,
2013-01-31 05:41:00,39.8,26.1,30.04,West,270,7.2,15.0,58,0.00,,,0.00,WUHU216HW,2013-01-31 12:41:00,
2013-01-31 05:46:00,39.2,25.6,30.04,West,270,8.1,12.8,58,0.00,,,0.00,WUHU216HW,2013-01-31 12:46:00,
2013-01-31 05:51:00,39.2,26.0,30.05,West,270,6.0,11.4,59,0.00,,,0.00,WUHU216HW,2013-01-31 12:51:00,
2013-01-31 05:56:00,38.9,25.8,30.04,WNW,293,5.6,11.0,59,0.00,,,0.00,WUHU216HW,2013-01-31 12:56:00,
2013-01-31 06:01:00,38.7,25.6,30.05,WNW,293,8.3,10.3,59,0.00,,,0.00,WUHU216HW,2013-01-31 13:01:00,
2013-01-31 06:06:00,38.9,25.8,30.05,WNW,293,5.4,8.3,59,0.00,,,0.00,WUHU216HW,2013-01-31 13:06:00,
2013-01-31 06:11:00,39.1,25.5,30.05,West,270,12.8,12.8,58,0.00,,,0.00,WUHU216HW,2013-01-31 13:11:00,
2013-01-31 06:16:00,39.2,25.6,30.05,West,270,5.8,12.8,58,0.00,,,0.00,WUHU216HW,2013-01-31 13:16:00,
2013-01-31 06:21:00,39.2,26.0,30.05,WNW,293,2.5,9.2,59,0.00,,,0.00,WUHU216HW,2013-01-31 13:21:00,
2013-01-31 06:26:00,38.9,26.1,30.05,WNW,293,4.7,7.6,60,0.00,,,0.00,WUHU216HW,2013-01-31 13:26:00,
2013-01-31 06:31:00,38.9,25.8,30.05,WSW,248,9.4,9.4,59,0.00,,,0.00,WUHU216HW,2013-01-31 13:31:00,
2013-01-31 06:36:00,39.2,26.0,30.05,West,270,4.9,9.4,59,0.00,,,0.00,WUHU216HW,2013-01-31 13:36:00,
2013-01-31 06:41:00,39.2,25.6,30.05,West,270,4.7,9.2,58,0.00,,,0.00,WUHU216HW,2013-01-31 13:41:00,
2013-01-31 06:46:00,39.6,25.5,30.05,WSW,248,8.5,11.2,57,0.00,,,0.00,WUHU216HW,2013-01-31 13:46:00,
2013-01-31 06:51:00,40.0,25.4,30.06,West,270,7.8,11.4,56,0.00,,,0.00,WUHU216HW,2013-01-31 13:51:00,
2013-01-31 06:56:00,39.8,25.7,30.06,WSW,248,10.7,11.4,57,0.00,,,0.00,WUHU216HW,2013-01-31 13:56:00,
2013-01-31 07:01:00,40.0,25.0,30.05,WSW,248,4.0,14.3,55,0.00,,,0.00,WUHU216HW,2013-01-31 14:01:00,
2013-01-31 07:06:00,40.1,25.6,30.06,WSW,248,7.4,14.3,56,0.00,,,0.00,WUHU216HW,2013-01-31 14:06:00,
2013-01-31 07:11:00,40.1,25.1,30.06,WSW,248,6.9,9.2,55,0.00,,,0.00,WUHU216HW,2013-01-31 14:11:00,
2013-01-31 07:16:00,40.0,25.0,30.06,WSW,248,11.4,11.4,55,0.00,,,0.00,WUHU216HW,2013-01-31 14:16:00,
2013-01-31 07:21:00,40.1,25.6,30.06,West,270,7.2,11.4,56,0.00,,,0.00,WUHU216HW,2013-01-31 14:21:00,
2013-01-31 07:26:00,40.0,25.4,30.06,West,270,8.1,11.2,56,0.00,,,0.00,WUHU216HW,2013-01-31 14:26:00,
2013-01-31 07:31:00,40.0,25.8,30.06,WSW,248,4.7,11.2,57,0.00,,,0.00,WUHU216HW,2013-01-31 14:31:00,
2013-01-31 07:36:00,39.8,25.7,30.06,WSW,248,8.5,9.4,57,0.00,,,0.00,WUHU216HW,2013-01-31 14:36:00,
2013-01-31 07:40:00,39.8,25.7,30.06,WSW,248,12.1,12.1,57,0.00,,,0.00,WUHU216HW,2013-01-31 14:40:00,
2013-01-31 07:45:00,40.1,25.6,30.06,WSW,248,6.0,12.1,56,0.00,,,0.00,WUHU216HW,2013-01-31 14:45:00,
2013-01-31 07:51:00,39.6,25.9,30.07,WSW,248,4.0,9.4,58,0.00,,,0.00,WUHU216HW,2013-01-31 14:51:00,
2013-01-31 07:56:00,39.2,25.6,30.07,SW,225,8.1,12.8,58,0.00,,,0.00,WUHU216HW,2013-01-31 14:56:00,
2013-01-31 08:02:00,39.4,25.4,30.07,WSW,248,10.1,12.8,57,0.00,,,0.00,WUHU216HW,2013-01-31 15:02:00,
2013-01-31 08:07:00,39.6,25.9,30.07,WSW,248,10.3,10.5,58,0.00,,,0.00,WUHU216HW,2013-01-31 15:07:00,
2013-01-31 08:12:00,39.6,25.9,30.07,West,270,4.0,10.5,58,0.00,,,0.00,WUHU216HW,2013-01-31 15:12:00,
2013-01-31 08:17:00,40.0,25.8,30.07,WSW,248,9.4,10.5,57,0.00,,,0.00,WUHU216HW,2013-01-31 15:17:00,
2013-01-31 08:22:00,40.0,26.3,30.07,West,270,3.8,10.1,58,0.00,,,0.00,WUHU216HW,2013-01-31 15:22:00,
2013-01-31 08:27:00,39.8,26.1,30.08,WSW,248,4.7,6.9,58,0.00,,,0.00,WUHU216HW,2013-01-31 15:27:00,
2013-01-31 08:32:00,39.6,26.4,30.08,West,270,4.0,6.3,59,0.00,,,0.00,WUHU216HW,2013-01-31 15:32:00,
2013-01-31 08:37:00,39.4,26.2,30.08,WSW,248,1.6,6.3,59,0.00,,,0.00,WUHU216HW,2013-01-31 15:37:00,
2013-01-31 08:43:00,39.2,26.5,30.08,NW,315,2.9,6.0,60,0.00,,,0.00,WUHU216HW,2013-01-31 15:43:00,
2013-01-31 08:48:00,39.1,26.6,30.08,WNW,293,3.8,6.0,61,0.00,,,0.00,WUHU216HW,2013-01-31 15:48:00,
2013-01-31 08:53:00,38.9,27.3,30.09,NNW,338,2.7,4.3,63,0.00,,,0.00,WUHU216HW,2013-01-31 15:53:00,
2013-01-31 08:58:00,38.5,26.9,30.09,NNW,338,1.8,3.4,63,0.00,,,0.00,WUHU216HW,2013-01-31 15:58:00,
2013-01-31 09:03:00,38.2,26.7,30.09,NNW,338,1.6,3.4,63,0.00,,,0.00,WUHU216HW,2013-01-31 16:03:00,
2013-01-31 09:08:00,38.3,26.8,30.09,NNW,338,1.3,2.5,63,0.00,,,0.00,WUHU216HW,2013-01-31 16:08:00,
2013-01-31 09:13:00,38.5,26.9,30.09,NNW,338,2.2,2.9,63,0.00,,,0.00,WUHU216HW,2013-01-31 16:13:00,
2013-01-31 09:18:00,38.5,26.9,30.09,NNW,338,0.9,2.9,63,0.00,,,0.00,WUHU216HW,2013-01-31 16:18:00,
2013-01-31 09:23:00,38.3,26.8,30.09,North,0,1.8,2.0,63,0.00,,,0.00,WUHU216HW,2013-01-31 16:23:00,
2013-01-31 09:28:00,38.5,26.6,30.09,North,0,1.8,2.0,62,0.00,,,0.00,WUHU216HW,2013-01-31 16:28:00,
2013-01-31 09:33:00,38.7,26.7,30.09,North,0,1.1,1.8,62,0.00,,,0.00,WUHU216HW,2013-01-31 16:33:00,
2013-01-31 09:38:00,38.7,27.1,30.09,SE,135,1.1,2.0,63,0.00,,,0.00,WUHU216HW,2013-01-31 16:38:00,
2013-01-31 09:43:00,38.7,27.1,30.09,ENE,68,2.9,2.9,63,0.00,,,0.00,WUHU216HW,2013-01-31 16:43:00,
2013-01-31 09:48:00,38.7,27.1,30.09,East,90,4.3,4.3,63,0.00,,,0.00,WUHU216HW,2013-01-31 16:48:00,
2013-01-31 09:53:00,38.5,26.9,30.09,ESE,113,3.4,4.3,63,0.00,,,0.00,WUHU216HW,2013-01-31 16:53:00,
2013-01-31 09:58:00,38.5,26.9,30.09,SE,135,4.0,4.5,63,0.00,,,0.00,WUHU216HW,2013-01-31 16:58:00,
2013-01-31 10:03:00,38.3,26.8,30.09,SE,135,4.5,4.5,63,0.00,,,0.00,WUHU216HW,2013-01-31 17:03:00,
2013-01-31 10:08:00,38.3,26.8,30.09,SE,135,3.8,4.9,63,0.00,,,0.00,WUHU216HW,2013-01-31 17:08:00,
2013-01-31 10:13:00,38.3,27.2,30.09,SE,135,2.9,4.9,64,0.00,,,0.00,WUHU216HW,2013-01-31 17:13:00,
2013-01-31 10:18:00,38.2,27.4,30.09,SSE,158,2.0,4.0,65,0.00,,,0.00,WUHU216HW,2013-01-31 17:18:00,
2013-01-31 10:23:00,38.2,27.4,30.09,SE,135,3.8,3.8,65,0.00,,,0.00,WUHU216HW,2013-01-31 17:23:00,
2013-01-31 10:28:00,38.2,27.4,30.09,SE,135,2.7,3.8,65,0.00,,,0.00,WUHU216HW,2013-01-31 17:28:00,
2013-01-31 10:33:00,38.2,27.7,30.09,SSW,203,4.5,4.5,66,0.00,,,0.00,WUHU216HW,2013-01-31 17:33:00,
2013-01-31 10:38:00,38.2,27.7,30.09,SSW,203,3.8,5.1,66,0.00,,,0.00,WUHU216HW,2013-01-31 17:38:00,
2013-01-31 10:43:00,38.3,27.5,30.09,SSW,203,5.8,6.5,65,0.00,,,0.00,WUHU216HW,2013-01-31 17:43:00,
2013-01-31 10:48:00,38.5,27.7,30.09,SSW,203,6.3,6.5,65,0.00,,,0.00,WUHU216HW,2013-01-31 17:48:00,
2013-01-31 10:53:00,38.7,27.9,30.09,SSW,203,5.4,6.3,65,0.00,,,0.00,WUHU216HW,2013-01-31 17:53:00,
2013-01-31 10:58:00,38.9,28.0,30.09,SSW,203,3.8,6.5,65,0.00,,,0.00,WUHU216HW,2013-01-31 17:58:00,
2013-01-31 11:03:00,38.9,28.0,30.09,SSW,203,6.7,6.7,65,0.00,,,0.00,WUHU216HW,2013-01-31 18:03:00,
2013-01-31 11:08:00,39.1,28.2,30.09,SSW,203,4.5,6.7,65,0.00,,,0.00,WUHU216HW,2013-01-31 18:08:00,
2013-01-31 11:13:00,39.2,28.4,30.10,SW,225,5.1,6.9,65,0.00,,,0.00,WUHU216HW,2013-01-31 18:13:00,
2013-01-31 11:18:00,39.2,28.4,30.10,SW,225,6.0,6.9,65,0.00,,,0.00,WUHU216HW,2013-01-31 18:18:00,
2013-01-31 11:23:00,39.4,28.5,30.09,SW,225,4.9,6.3,65,0.00,,,0.00,WUHU216HW,2013-01-31 18:23:00,
2013-01-31 11:28:00,39.6,28.4,30.09,SSW,203,3.4,6.9,64,0.00,,,0.00,WUHU216HW,2013-01-31 18:28:00,
2013-01-31 11:33:00,39.6,28.4,30.09,SSW,203,4.0,6.9,64,0.00,,,0.00,WUHU216HW,2013-01-31 18:33:00,
2013-01-31 11:38:00,40.0,28.7,30.09,SSW,203,4.0,4.9,64,0.00,,,0.00,WUHU216HW,2013-01-31 18:38:00,
2013-01-31 11:43:00,40.1,29.3,30.09,SSW,203,3.4,5.4,65,0.00,,,0.00,WUHU216HW,2013-01-31 18:43:00,
2013-01-31 11:48:00,40.3,29.4,30.09,SE,135,2.5,5.4,65,0.00,,,0.00,WUHU216HW,2013-01-31 18:48:00,
2013-01-31 11:53:00,40.7,29.8,30.09,South,180,3.6,3.8,65,0.00,,,0.00,WUHU216HW,2013-01-31 18:53:00,
2013-01-31 11:58:00,40.9,30.0,30.09,SSE,158,2.2,3.8,65,0.00,,,0.00,WUHU216HW,2013-01-31 18:58:00,
2013-01-31 12:03:00,41.0,30.2,30.08,SSE,158,1.8,3.8,65,0.00,,,0.00,WUHU216HW,2013-01-31 19:03:00,
2013-01-31 12:08:00,41.0,30.2,30.08,SSE,158,1.1,3.8,65,0.00,,,0.00,WUHU216HW,2013-01-31 19:08:00,
2013-01-31 12:13:00,41.2,30.3,30.08,SSE,158,2.7,2.7,65,0.00,,,0.00,WUHU216HW,2013-01-31 19:13:00,
2013-01-31 12:18:00,41.2,30.3,30.08,SSE,158,3.6,3.6,65,0.00,,,0.00,WUHU216HW,2013-01-31 19:18:00,
2013-01-31 12:23:00,41.4,30.5,30.08,SSE,158,3.6,3.8,65,0.00,,,0.00,WUHU216HW,2013-01-31 19:23:00,
2013-01-31 12:28:00,41.6,30.7,30.08,SSE,158,4.0,4.0,65,0.00,,,0.00,WUHU216HW,2013-01-31 19:28:00,
2013-01-31 12:33:00,41.6,30.7,30.08,South,180,3.6,4.0,65,0.00,,,0.00,WUHU216HW,2013-01-31 19:33:00,
2013-01-31 12:38:00,41.8,30.4,30.07,SSE,158,4.0,4.7,64,0.00,,,0.00,WUHU216HW,2013-01-31 19:38:00,
2013-01-31 12:43:00,41.9,30.6,30.07,SSE,158,3.4,4.7,64,0.00,,,0.00,WUHU216HW,2013-01-31 19:43:00,
2013-01-31 12:48:00,42.1,30.8,30.07,SSE,158,5.1,5.1,64,0.00,,,0.00,WUHU216HW,2013-01-31 19:48:00,
2013-01-31 12:53:00,42.1,30.8,30.07,SSE,158,3.8,5.1,64,0.00,,,0.00,WUHU216HW,2013-01-31 19:53:00,
2013-01-31 12:58:00,42.1,30.8,30.07,SSE,158,3.4,4.5,64,0.00,,,0.00,WUHU216HW,2013-01-31 19:58:00,
2013-01-31 13:03:00,42.1,30.4,30.07,SSE,158,3.8,4.7,63,0.00,,,0.00,WUHU216HW,2013-01-31 20:03:00,
2013-01-31 13:08:00,42.1,30.4,30.07,SE,135,4.3,5.4,63,0.00,,,0.00,WUHU216HW,2013-01-31 20:08:00,
2013-01-31 13:13:00,42.3,30.6,30.07,SSE,158,3.8,5.4,63,0.00,,,0.00,WUHU216HW,2013-01-31 20:13:00,
2013-01-31 13:18:00,42.3,30.6,30.07,SSE,158,3.6,4.0,63,0.00,,,0.00,WUHU216HW,2013-01-31 20:18:00,
2013-01-31 13:23:00,42.3,30.6,30.06,SSE,158,2.7,4.0,63,0.00,,,0.00,WUHU216HW,2013-01-31 20:23:00,
2013-01-31 13:28:00,42.5,30.7,30.06,SSE,158,3.4,4.7,63,0.00,,,0.00,WUHU216HW,2013-01-31 20:28:00,
2013-01-31 13:33:00,42.8,31.1,30.06,South,180,4.5,4.7,63,0.00,,,0.00,WUHU216HW,2013-01-31 20:33:00,
2013-01-31 13:38:00,43.0,31.2,30.06,SSE,158,4.9,4.9,63,0.00,,,0.00,WUHU216HW,2013-01-31 20:38:00,
2013-01-31 13:43:00,43.0,31.2,30.06,SSE,158,4.9,6.3,63,0.00,,,0.00,WUHU216HW,2013-01-31 20:43:00,
2013-01-31 13:48:00,42.8,31.1,30.06,SSE,158,4.3,6.3,63,0.00,,,0.00,WUHU216HW,2013-01-31 20:48:00,
2013-01-31 13:53:00,42.7,30.9,30.06,SE,135,3.6,5.4,63,0.00,,,0.00,WUHU216HW,2013-01-31 20:53:00,
2013-01-31 13:58:00,42.5,30.7,30.06,SSE,158,3.4,4.9,63,0.00,,,0.00,WUHU216HW,2013-01-31 20:58:00,
2013-01-31 14:03:00,42.3,30.6,30.06,South,180,6.5,6.5,63,0.00,,,0.00,WUHU216HW,2013-01-31 21:03:00,
2013-01-31 14:08:00,42.1,30.4,30.06,SSE,158,4.3,6.5,63,0.00,,,0.00,WUHU216HW,2013-01-31 21:08:00,
2013-01-31 14:13:00,42.1,30.4,30.06,SSE,158,3.6,6.0,63,0.00,,,0.00,WUHU216HW,2013-01-31 21:13:00,
2013-01-31 14:18:00,42.1,30.4,30.06,SSE,158,5.1,6.0,63,0.00,,,0.00,WUHU216HW,2013-01-31 21:18:00,
2013-01-31 14:23:00,42.3,30.6,30.06,SSE,158,4.9,5.1,63,0.00,,,0.00,WUHU216HW,2013-01-31 21:23:00,
2013-01-31 14:28:00,42.5,30.7,30.06,SSE,158,3.8,4.9,63,0.00,,,0.00,WUHU216HW,2013-01-31 21:28:00,
2013-01-31 14:33:00,42.5,30.7,30.06,SSE,158,3.4,4.7,63,0.00,,,0.00,WUHU216HW,2013-01-31 21:33:00,
2013-01-31 14:38:00,42.5,30.7,30.06,SE,135,4.7,4.7,63,0.00,,,0.00,WUHU216HW,2013-01-31 21:38:00,
2013-01-31 14:43:00,42.5,30.7,30.06,SSE,158,3.8,5.4,63,0.00,,,0.00,WUHU216HW,2013-01-31 21:43:00,
2013-01-31 14:48:00,42.5,30.7,30.06,SSE,158,3.6,5.4,63,0.00,,,0.00,WUHU216HW,2013-01-31 21:48:00,
2013-01-31 14:53:00,42.1,30.4,30.06,SSE,158,4.7,4.7,63,0.00,,,0.00,WUHU216HW,2013-01-31 21:53:00,
2013-01-31 14:58:00,41.8,30.1,30.06,SSE,158,3.4,4.7,63,0.00,,,0.00,WUHU216HW,2013-01-31 21:58:00,
2013-01-31 15:03:00,41.4,30.2,30.06,SSE,158,4.5,4.7,64,0.00,,,0.00,WUHU216HW,2013-01-31 22:03:00,
2013-01-31 15:08:00,41.2,30.3,30.06,SSE,158,2.2,4.7,65,0.00,,,0.00,WUHU216HW,2013-01-31 22:08:00,
2013-01-31 15:13:00,41.0,30.2,30.06,SE,135,1.8,3.4,65,0.00,,,0.00,WUHU216HW,2013-01-31 22:13:00,
2013-01-31 15:18:00,40.7,29.8,30.06,SSE,158,4.7,4.7,65,0.00,,,0.00,WUHU216HW,2013-01-31 22:18:00,
2013-01-31 15:23:00,40.7,29.8,30.06,SE,135,2.9,6.0,65,0.00,,,0.00,WUHU216HW,2013-01-31 22:23:00,
2013-01-31 15:28:00,40.5,30.0,30.06,SSE,158,2.5,6.0,66,0.00,,,0.00,WUHU216HW,2013-01-31 22:28:00,
2013-01-31 15:33:00,40.3,29.8,30.06,SE,135,1.8,4.0,66,0.00,,,0.00,WUHU216HW,2013-01-31 22:33:00,
2013-01-31 15:38:00,40.3,29.8,30.06,SSE,158,2.5,3.4,66,0.00,,,0.00,WUHU216HW,2013-01-31 22:38:00,
2013-01-31 15:43:00,40.1,29.6,30.06,SE,135,1.1,2.7,66,0.00,,,0.00,WUHU216HW,2013-01-31 22:43:00,
2013-01-31 15:48:00,40.0,29.4,30.06,SE,135,1.3,1.6,66,0.00,,,0.00,WUHU216HW,2013-01-31 22:48:00,
2013-01-31 15:53:00,40.1,29.6,30.06,SE,135,1.1,2.2,66,0.00,,,0.00,WUHU216HW,2013-01-31 22:53:00,
2013-01-31 15:58:00,40.1,30.0,30.06,South,180,2.7,3.4,67,0.00,,,0.00,WUHU216HW,2013-01-31 22:58:00,
2013-01-31 16:03:00,40.1,30.0,30.06,SE,135,2.5,4.7,67,0.00,,,0.00,WUHU216HW,2013-01-31 23:03:00,
2013-01-31 16:08:00,40.3,30.2,30.06,SSE,158,2.0,4.7,67,0.00,,,0.00,WUHU216HW,2013-01-31 23:08:00,
2013-01-31 16:13:00,40.3,30.2,30.06,SE,135,1.6,2.5,67,0.00,,,0.00,WUHU216HW,2013-01-31 23:13:00,
2013-01-31 16:18:00,40.1,30.0,30.06,South,180,2.2,2.5,67,0.00,,,0.00,WUHU216HW,2013-01-31 23:18:00,
2013-01-31 16:23:00,40.0,29.8,30.06,SSE,158,1.8,3.1,67,0.00,,,0.00,WUHU216HW,2013-01-31 23:23:00,
2013-01-31 16:28:00,40.0,29.4,30.06,South,180,3.1,3.1,66,0.00,,,0.00,WUHU216HW,2013-01-31 23:28:00,
2013-01-31 16:33:00,40.0,29.4,30.06,SSW,203,0.0,3.1,66,0.00,,,0.00,WUHU216HW,2013-01-31 23:33:00,
2013-01-31 16:38:00,40.0,29.4,30.06,ENE,68,1.6,1.6,66,0.00,,,0.00,WUHU216HW,2013-01-31 23:38:00,
2013-01-31 16:43:00,39.6,29.4,30.06,ENE,68,1.6,2.0,67,0.00,,,0.00,WUHU216HW,2013-01-31 23:43:00,
2013-01-31 16:48:00,39.6,29.4,30.06,ENE,68,1.8,2.0,67,0.00,,,0.00,WUHU216HW,2013-01-31 23:48:00,
2013-01-31 16:53:00,39.4,29.3,30.06,ESE,113,1.8,2.0,67,0.00,,,0.00,WUHU216HW,2013-01-31 23:53:00,
2013-01-31 16:58:00,39.4,29.3,30.06,ENE,68,0.2,2.5,67,0.00,,,0.00,WUHU216HW,2013-01-31 23:58:00,
2013-01-31 17:03:00,39.4,29.3,30.06,ENE,68,2.0,2.5,67,0.00,,,0.00,WUHU216HW,2013-02-01 00:03:00,
2013-01-31 17:08:00,39.2,29.1,30.06,ENE,68,2.7,3.1,67,0.00,,,0.00,WUHU216HW,2013-02-01 00:08:00,
2013-01-31 17:13:00,38.9,29.2,30.06,ENE,68,2.2,3.1,68,0.00,,,0.00,WUHU216HW,2013-02-01 00:13:00,
2013-01-31 17:18:00,38.9,29.2,30.06,East,90,1.8,2.7,68,0.00,,,0.00,WUHU216HW,2013-02-01 00:18:00,
2013-01-31 17:23:00,38.9,29.2,30.06,ESE,113,1.8,2.2,68,0.00,,,0.00,WUHU216HW,2013-02-01 00:23:00,
2013-01-31 17:28:00,38.9,29.2,30.06,SE,135,2.7,2.7,68,0.00,,,0.00,WUHU216HW,2013-02-01 00:28:00,
2013-01-31 17:33:00,38.9,29.2,30.06,SE,135,0.0,2.7,68,0.00,,,0.00,WUHU216HW,2013-02-01 00:33:00,
2013-01-31 17:38:00,38.9,28.8,30.06,SE,135,0.9,2.2,67,0.00,,,0.00,WUHU216HW,2013-02-01 00:38:00,
2013-01-31 17:43:00,38.9,28.8,30.06,ESE,113,0.4,4.0,67,0.00,,,0.00,WUHU216HW,2013-02-01 00:43:00,
2013-01-31 17:48:00,39.1,29.0,30.06,SE,135,2.5,4.0,67,0.00,,,0.00,WUHU216HW,2013-02-01 00:48:00,
2013-01-31 17:53:00,38.9,29.2,30.06,SE,135,5.4,5.4,68,0.00,,,0.00,WUHU216HW,2013-02-01 00:53:00,
2013-01-31 17:58:00,38.7,29.0,30.06,SE,135,2.9,5.4,68,0.00,,,0.00,WUHU216HW,2013-02-01 00:58:00,
2013-01-31 18:03:00,38.5,28.8,30.06,SE,135,2.5,4.0,68,0.00,,,0.00,WUHU216HW,2013-02-01 01:03:00,
2013-01-31 18:08:00,38.2,28.9,30.06,SSE,158,2.2,3.6,69,0.00,,,0.00,WUHU216HW,2013-02-01 01:08:00,
2013-01-31 18:13:00,38.0,28.7,30.06,WSW,248,3.1,3.6,69,0.00,,,0.00,WUHU216HW,2013-02-01 01:13:00,
2013-01-31 18:18:00,38.0,29.1,30.06,SE,135,2.7,5.1,70,0.00,,,0.00,WUHU216HW,2013-02-01 01:18:00,
2013-01-31 18:23:00,38.0,29.1,30.06,SSW,203,2.7,5.1,70,0.00,,,0.00,WUHU216HW,2013-02-01 01:23:00,
2013-01-31 18:28:00,37.8,29.0,30.06,SE,135,0.9,2.9,70,0.00,,,0.00,WUHU216HW,2013-02-01 01:28:00,
2013-01-31 18:33:00,37.8,29.0,30.06,SSE,158,3.4,3.4,70,0.00,,,0.00,WUHU216HW,2013-02-01 01:33:00,
2013-01-31 18:38:00,37.8,29.0,30.06,SSE,158,1.8,3.4,70,0.00,,,0.00,WUHU216HW,2013-02-01 01:38:00,
2013-01-31 18:43:00,37.8,29.0,30.06,SE,135,1.8,2.9,70,0.00,,,0.00,WUHU216HW,2013-02-01 01:43:00,
2013-01-31 18:48:00,37.8,29.3,30.06,SE,135,2.2,2.5,71,0.00,,,0.00,WUHU216HW,2013-02-01 01:48:00,
2013-01-31 18:55:00,37.6,29.1,30.06,SE,135,2.5,3.1,71,0.00,,,0.00,WUHU216HW,2013-02-01 01:55:00,
2013-01-31 19:00:00,37.4,29.0,30.06,SE,135,3.4,3.4,71,0.00,,,0.00,WUHU216HW,2013-02-01 02:00:00,
2013-01-31 19:06:00,37.4,29.0,30.07,SE,135,3.6,3.6,71,0.00,,,0.00,WUHU216HW,2013-02-01 02:06:00,
2013-01-31 19:11:00,37.4,29.0,30.07,SE,135,3.1,3.6,71,0.00,,,0.00,WUHU216HW,2013-02-01 02:11:00,
2013-01-31 19:16:00,37.6,29.1,30.07,SE,135,2.5,3.6,71,0.00,,,0.00,WUHU216HW,2013-02-01 02:16:00,
2013-01-31 19:21:00,37.6,29.1,30.07,SSE,158,4.0,4.0,71,0.00,,,0.00,WUHU216HW,2013-02-01 02:21:00,
2013-01-31 19:26:00,37.6,29.1,30.07,SE,135,3.8,4.7,71,0.00,,,0.00,WUHU216HW,2013-02-01 02:26:00,
2013-01-31 19:31:00,37.8,29.3,30.06,SE,135,5.1,5.4,71,0.00,,,0.00,WUHU216HW,2013-02-01 02:31:00,
2013-01-31 19:36:00,37.6,29.1,30.06,SE,135,4.9,6.3,71,0.00,,,0.00,WUHU216HW,2013-02-01 02:36:00,
2013-01-31 19:41:00,37.8,29.3,30.06,SE,135,4.9,6.3,71,0.00,,,0.00,WUHU216HW,2013-02-01 02:41:00,
2013-01-31 19:46:00,37.8,29.3,30.06,SE,135,3.8,6.3,71,0.00,,,0.00,WUHU216HW,2013-02-01 02:46:00,
2013-01-31 19:51:00,37.8,29.3,30.07,SE,135,3.4,5.4,71,0.00,,,0.00,WUHU216HW,2013-02-01 02:51:00,
2013-01-31 19:56:00,37.6,29.1,30.07,SE,135,3.4,4.3,71,0.00,,,0.00,WUHU216HW,2013-02-01 02:56:00,
2013-01-31 20:01:00,37.4,29.0,30.06,SE,135,2.7,4.0,71,0.00,,,0.00,WUHU216HW,2013-02-01 03:01:00,
2013-01-31 20:06:00,37.3,29.1,30.06,SE,135,2.2,4.0,72,0.00,,,0.00,WUHU216HW,2013-02-01 03:06:00,
2013-01-31 20:11:00,37.1,28.9,30.07,SSE,158,1.3,2.9,72,0.00,,,0.00,WUHU216HW,2013-02-01 03:11:00,
2013-01-31 20:16:00,37.1,28.9,30.07,SE,135,0.7,2.7,72,0.00,,,0.00,WUHU216HW,2013-02-01 03:16:00,
2013-01-31 20:21:00,37.1,28.9,30.06,SE,135,0.7,2.7,72,0.00,,,0.00,WUHU216HW,2013-02-01 03:21:00,
2013-01-31 20:26:00,36.9,29.1,30.06,SE,135,1.1,1.6,73,0.00,,,0.00,WUHU216HW,2013-02-01 03:26:00,
2013-01-31 20:31:00,36.7,28.9,30.06,SSE,158,2.5,2.7,73,0.00,,,0.00,WUHU216HW,2013-02-01 03:31:00,
2013-01-31 20:36:00,36.7,28.9,30.06,SE,135,1.8,3.6,73,0.00,,,0.00,WUHU216HW,2013-02-01 03:36:00,
2013-01-31 20:41:00,36.7,28.9,30.06,SSE,158,2.7,3.6,73,0.00,,,0.00,WUHU216HW,2013-02-01 03:41:00,
2013-01-31 20:46:00,36.7,28.9,30.06,SE,135,1.3,3.4,73,0.00,,,0.00,WUHU216HW,2013-02-01 03:46:00,
2013-01-31 20:51:00,36.7,28.9,30.06,SSE,158,2.9,2.9,73,0.00,,,0.00,WUHU216HW,2013-02-01 03:51:00,
2013-01-31 20:56:00,36.7,29.2,30.06,SE,135,0.4,2.9,74,0.00,,,0.00,WUHU216HW,2013-02-01 03:56:00,
2013-01-31 21:01:00,36.7,29.2,30.06,SE,135,1.1,1.8,74,0.00,,,0.00,WUHU216HW,2013-02-01 04:01:00,
2013-01-31 21:06:00,36.9,29.3,30.06,SSW,203,2.5,3.1,74,0.00,,,0.00,WUHU216HW,2013-02-01 04:06:00,
2013-01-31 21:11:00,37.1,29.3,30.06,South,180,3.4,4.0,73,0.00,,,0.00,WUHU216HW,2013-02-01 04:11:00,
2013-01-31 21:16:00,37.1,29.3,30.06,SSE,158,3.4,4.0,73,0.00,,,0.00,WUHU216HW,2013-02-01 04:16:00,
2013-01-31 21:20:00,36.9,29.1,30.06,SE,135,1.1,3.6,73,0.00,,,0.00,WUHU216HW,2013-02-01 04:20:00,
2013-01-31 21:25:00,36.7,28.9,30.06,ESE,113,1.1,3.6,73,0.00,,,0.00,WUHU216HW,2013-02-01 04:25:00,
2013-01-31 21:30:00,36.4,28.5,30.06,East,90,1.1,1.6,73,0.00,,,0.00,WUHU216HW,2013-02-01 04:30:00,
2013-01-31 21:35:00,36.4,28.5,30.06,ENE,68,0.9,1.8,73,0.00,,,0.00,WUHU216HW,2013-02-01 04:35:00,
2013-01-31 21:40:00,36.7,28.9,30.06,ENE,68,1.1,1.8,73,0.00,,,0.00,WUHU216HW,2013-02-01 04:40:00,
2013-01-31 21:45:00,36.7,28.9,30.06,ESE,113,1.3,1.6,73,0.00,,,0.00,WUHU216HW,2013-02-01 04:45:00,
2013-01-31 21:50:00,36.9,28.7,30.06,ENE,68,1.3,1.8,72,0.00,,,0.00,WUHU216HW,2013-02-01 04:50:00,
2013-01-31 21:55:00,37.1,28.9,30.06,ENE,68,1.8,2.0,72,0.00,,,0.00,WUHU216HW,2013-02-01 04:55:00,
2013-01-31 22:00:00,37.1,28.9,30.06,ENE,68,1.6,2.0,72,0.00,,,0.00,WUHU216HW,2013-02-01 05:00:00,
2013-01-31 22:02:00,37.1,28.9,30.06,ENE,68,1.1,2.0,72,0.00,,,0.00,WUHU216HW,2013-02-01 05:02:00,
2013-01-31 22:03:00,37.1,28.9,30.06,NE,45,2.0,2.0,72,0.00,,,0.00,WUHU216HW,2013-02-01 05:03:00,
2013-01-31 22:08:00,37.1,28.6,30.06,ENE,68,1.6,2.5,71,0.00,,,0.00,WUHU216HW,2013-02-01 05:08:00,
2013-01-31 22:13:00,37.1,28.6,30.06,ESE,113,1.1,2.2,71,0.00,,,0.00,WUHU216HW,2013-02-01 05:13:00,
2013-01-31 22:18:00,37.1,28.6,30.06,SE,135,0.7,1.8,71,0.00,,,0.00,WUHU216HW,2013-02-01 05:18:00,
2013-01-31 22:23:00,37.1,28.6,30.05,ESE,113,1.8,1.8,71,0.00,,,0.00,WUHU216HW,2013-02-01 05:23:00,
2013-01-31 22:28:00,37.1,28.6,30.05,SE,135,1.6,2.2,71,0.00,,,0.00,WUHU216HW,2013-02-01 05:28:00,
2013-01-31 22:33:00,37.1,28.6,30.05,SE,135,2.0,2.9,71,0.00,,,0.00,WUHU216HW,2013-02-01 05:33:00,
2013-01-31 22:38:00,37.1,28.6,30.04,SE,135,2.5,3.4,71,0.00,,,0.00,WUHU216HW,2013-02-01 05:38:00,
2013-01-31 22:43:00,37.1,28.6,30.05,SE,135,1.8,3.4,71,0.00,,,0.00,WUHU216HW,2013-02-01 05:43:00,
2013-01-31 22:48:00,37.3,28.8,30.05,SE,135,1.8,2.5,71,0.00,,,0.00,WUHU216HW,2013-02-01 05:48:00,
2013-01-31 22:53:00,37.4,29.0,30.04,SSE,158,2.0,2.5,71,0.00,,,0.00,WUHU216HW,2013-02-01 05:53:00,
2013-01-31 22:58:00,37.3,28.8,30.04,SE,135,2.0,2.5,71,0.00,,,0.00,WUHU216HW,2013-02-01 05:58:00,
2013-01-31 23:03:00,37.1,28.6,30.04,SE,135,2.5,3.1,71,0.00,,,0.00,WUHU216HW,2013-02-01 06:03:00,
2013-01-31 23:08:00,37.1,28.6,30.04,SSE,158,2.7,3.1,71,0.00,,,0.00,WUHU216HW,2013-02-01 06:08:00,
2013-01-31 23:13:00,37.1,28.6,30.04,SE,135,2.5,3.1,71,0.00,,,0.00,WUHU216HW,2013-02-01 06:13:00,
2013-01-31 23:18:00,36.7,28.3,30.04,SE,135,1.8,2.9,71,0.00,,,0.00,WUHU216HW,2013-02-01 06:18:00,
2013-01-31 23:23:00,36.7,28.3,30.04,SE,135,2.5,2.5,71,0.00,,,0.00,WUHU216HW,2013-02-01 06:23:00,
2013-01-31 23:28:00,36.7,28.5,30.04,SSE,158,3.1,3.1,72,0.00,,,0.00,WUHU216HW,2013-02-01 06:28:00,
2013-01-31 23:33:00,36.5,28.4,30.04,SE,135,2.9,3.4,72,0.00,,,0.00,WUHU216HW,2013-02-01 06:33:00,
2013-01-31 23:38:00,36.5,28.4,30.04,SE,135,2.0,3.4,72,0.00,,,0.00,WUHU216HW,2013-02-01 06:38:00,
2013-01-31 23:43:00,36.5,28.4,30.04,SE,135,3.1,3.1,72,0.00,,,0.00,WUHU216HW,2013-02-01 06:43:00,
2013-01-31 23:48:00,36.7,28.5,30.04,SE,135,3.6,3.8,72,0.00,,,0.00,WUHU216HW,2013-02-01 06:48:00,
2013-01-31 23:53:00,36.7,28.5,30.04,SSE,158,2.9,3.8,72,0.00,,,0.00,WUHU216HW,2013-02-01 06:53:00,
2013-01-31 23:58:00,36.7,28.5,30.04,SE,135,3.1,3.6,72,0.00,,,0.00,WUHU216HW,2013-02-01 06:58:00,